Location: Carson
(33.8314°N, 118.2820°W)
Time: 22:04:04
(UTC+00:00)

METEOR-M - Pass Details

Date: 23 November 2020
Orbit: 817 x 818 km, 98.5° (Epoch: 20 January)

Event Time Altitude Azimuth Distance (km) Brightness Sun altitude
Rises 12:50:11 0° 8° (N) 3,349 7.3 -21.2°
Reaches altitude 10° 12:52:34 10° 4° (N) 2,414 6.5 -20.7°
Maximum altitude 12:57:49 60° 286° (WNW) 930 4.1 -19.7°
Drops below altitude 10° 13:03:02 10° 207° (SSW) 2,401 6.4 -18.6°
Sets 13:05:23 0° 204° (SSW) 3,329 7.2 -18.1°
